Tracking 18942 objects as of 18-Jan-2018
HD Live streaming from Space Station
objects crossing your sky now

COSMOS 1362

Track COSMOS 1362 now!
10-day predictions
COSMOS 1362 is classified as:


NORAD ID: 13165
Int'l Code: 1982-040F
Perigee: 1,473.5 km
Apogee: 1,502.3 km
Inclination: 74.0 °
Period: 115.6 minutes
Semi major axis: 7858 km
RCS: 0.6994 m2 (medium)
Launch date: May 6, 1982
Source: Commonwealth of Independent States (former USSR) (CIS)
Launch site: PLESETSK MISSILE AND SPACE COMPLEX (PKMTR)
aabbcc
Your satellite tracking list
Your tracking list is empty




NASA's NSSDC Master Catalog

Two Line Element Set (TLE):
1 13165U 82040F   18017.54205686 -.00000016 +00000-0 -83480-6 0  9991
2 13165 074.0084 204.9931 0018337 208.0260 181.3370 12.46115568624014
Source of the keplerian elements: AFSPC